Date String (YYYY-MM-DD hh:mm:ss) UTC,Instrument flags,absolute air pressure of the measurement (hPa),sample flow rate (lpm),inlet stack bypass flow (lpm),air temperature of the measurement (°C),ambient temperature measured by the external sensor (°C),aerosol sample conditioner tube jacket temperature (°C),OPC LED temperature (°C),internal box temperature (°C),relative humidity of the measurement (%),span deviation,mass concentration of particles derived from Lorenz-Mie calculation of OPC scattering (μg/m³),mass concentration of particles derived from Lorenz-Mie calculation of OPC scattering (μg/m³),mass concentration of particles derived from Lorenz-Mie calculation of OPC scattering (μg/m³)
DateTimeUTC,F1_M11,P_M11,Q1_M11,Q2_M11,T1_M11,T2_M11,T3_M11,T4_M11,T5_M11,U1_M11,ZSPAN_M11,X2_M11,X0_M11,X1_M11
2024-06-16 03:00:00,SystemResetWarning,0824.3,5.00,000.00,029.6,029.1,000.0,037.5,031.4,018.4,0000.0,0004.99,0014.46,0004.19
2024-06-16 03:01:00,SystemResetWarning,0824.3,5.01,000.00,029.6,029.2,000.0,037.6,031.5,018.2,0000.0,0004.90,0014.14,0004.18
2024-06-16 03:02:00,SystemResetWarning,0824.3,4.99,000.00,029.7,028.7,000.0,037.7,031.2,018.4,0000.0,0004.86,0013.62,0004.17
2024-06-16 03:03:00,SystemResetWarning,0824.2,5.00,000.00,029.3,026.6,000.0,037.7,030.3,018.7,0000.0,0004.89,0011.34,0004.18
2024-06-16 03:04:00,SystemResetWarning,0824.1,5.01,000.00,029.1,026.4,000.0,037.7,030.1,019.1,0000.0,0004.87,0010.05,0004.19
2024-06-16 03:05:00,SystemResetWarning,0824.2,5.01,000.00,029.1,026.8,000.0,037.6,030.3,018.9,0000.0,0004.88,0010.46,0004.21
2024-06-16 03:06:00,SystemResetWarning,0824.3,5.00,000.00,029.1,027.2,000.0,037.6,030.5,019.2,0000.0,0004.90,0010.57,0004.22
2024-06-16 03:07:00,SystemResetWarning,0824.3,5.00,000.00,029.1,027.6,000.0,037.5,030.7,018.9,0000.0,0004.94,0010.24,0004.25
2024-06-16 03:08:00,SystemResetWarning,0824.3,5.00,000.00,029.2,027.9,000.0,037.5,030.8,018.6,0000.0,0004.96,0010.38,0004.28
2024-06-16 03:09:00,SystemResetWarning,0824.4,5.00,000.00,029.2,028.2,000.0,037.5,031.0,018.5,0000.0,0004.98,0011.46,0004.30
2024-06-16 03:10:00,SystemResetWarning,0824.3,5.00,000.00,029.3,028.4,000.0,037.5,031.1,018.6,0000.0,0004.98,0011.55,0004.31
2024-06-16 03:11:00,SystemResetWarning,0824.4,5.00,000.00,029.4,028.7,000.0,037.5,031.2,018.5,0000.0,0005.02,0013.26,0004.33
2024-06-16 03:12:00,SystemResetWarning,0824.4,4.99,000.00,029.4,028.8,000.0,037.6,031.3,018.2,0000.0,0005.07,0014.12,0004.34
2024-06-16 03:13:00,SystemResetWarning,0824.4,5.00,000.00,029.5,029.0,000.0,037.6,031.4,018.1,0000.0,0005.08,0014.26,0004.34
2024-06-16 03:14:00,SystemResetWarning,0824.4,4.99,000.00,029.6,029.1,000.0,037.6,031.4,017.8,0000.0,0005.06,0014.12,0004.34
2024-06-16 03:15:00,SystemResetWarning,0824.5,5.00,000.00,029.7,029.1,000.0,037.7,031.4,017.3,0000.0,0005.05,0014.12,0004.33
2024-06-16 03:16:00,SystemResetWarning,0824.4,5.00,000.00,029.5,027.1,000.0,037.8,030.5,017.6,0000.0,0005.02,0014.50,0004.32
2024-06-16 03:17:00,SystemResetWarning,0824.4,5.00,000.00,029.0,025.2,000.0,037.7,029.5,018.3,0000.0,0005.05,0014.21,0004.33
2024-06-16 03:18:00,SystemResetWarning,0824.4,5.02,000.00,028.8,025.4,000.0,037.7,029.5,018.4,0000.0,0005.08,0015.11,0004.33
2024-06-16 03:19:00,SystemResetWarning,0824.4,4.99,000.00,028.7,025.9,000.0,037.5,029.8,018.4,0000.0,0005.09,0015.40,0004.32
2024-06-16 03:20:00,SystemResetWarning,0824.4,5.00,000.00,028.7,026.4,000.0,037.4,030.0,018.4,0000.0,0005.14,0015.24,0004.32
2024-06-16 03:21:00,SystemResetWarning,0824.4,5.00,000.00,028.8,026.9,000.0,037.4,030.3,018.5,0000.0,0005.12,0014.81,0004.32
2024-06-16 03:22:00,SystemResetWarning,0824.3,5.00,000.00,028.8,027.3,000.0,037.3,030.5,018.4,0000.0,0005.09,0013.22,0004.33
2024-06-16 03:23:00,SystemResetWarning,0824.4,5.00,000.00,028.9,027.7,000.0,037.3,030.6,018.0,0000.0,0005.09,0012.26,0004.34
2024-06-16 03:24:00,SystemResetWarning,0824.4,5.00,000.00,029.0,027.9,000.0,037.3,030.7,018.0,0000.0,0005.08,0012.05,0004.36
2024-06-16 03:25:00,SystemResetWarning,0824.4,5.00,000.00,029.1,028.2,000.0,037.3,030.9,018.2,0000.0,0005.08,0012.20,0004.38
2024-06-16 03:26:00,SystemResetWarning,0824.4,5.00,000.00,029.1,028.4,000.0,037.3,031.0,018.3,0000.0,0005.12,0012.62,0004.39
2024-06-16 03:27:00,SystemResetWarning,0824.4,5.00,000.00,029.2,028.6,000.0,037.4,031.1,018.4,0000.0,0005.16,0012.11,0004.40
2024-06-16 03:28:00,SystemResetWarning,0824.4,4.99,000.00,029.3,028.7,000.0,037.4,031.1,018.0,0000.0,0005.17,0012.31,0004.40
2024-06-16 03:29:00,SystemResetWarning,0824.4,5.00,000.00,029.4,028.8,000.0,037.4,031.2,017.9,0000.0,0005.16,0011.75,0004.39
2024-06-16 03:30:00,SystemResetWarning,0824.4,5.01,000.00,029.4,029.0,000.0,037.5,031.3,017.6,0000.0,0005.18,0011.78,0004.40
2024-06-16 03:31:00,SystemResetWarning,0824.4,5.01,000.00,029.5,029.1,000.0,037.5,031.4,017.5,0000.0,0005.15,0010.80,0004.41
2024-06-16 03:32:00,SystemResetWarning,0824.4,5.00,000.00,029.6,029.2,000.0,037.5,031.4,017.6,0000.0,0005.18,0010.90,0004.42
2024-06-16 03:33:00,SystemResetWarning,0824.4,5.00,000.00,029.7,029.3,000.0,037.6,031.5,017.4,0000.0,0005.17,0010.97,0004.42
2024-06-16 03:34:00,SystemResetWarning,0824.4,4.99,000.00,029.7,029.3,000.0,037.7,031.5,017.7,0000.0,0005.13,0010.88,0004.42
2024-06-16 03:35:00,SystemResetWarning,0824.4,4.99,000.00,029.6,027.7,000.0,037.7,030.7,018.3,0000.0,0005.16,0011.00,0004.42
2024-06-16 03:36:00,SystemResetWarning,0824.4,5.02,000.00,029.2,026.3,000.0,037.8,030.1,018.3,0000.0,0005.18,0010.94,0004.42
2024-06-16 03:37:00,SystemResetWarning,0824.4,5.00,000.00,029.1,026.5,000.0,037.7,030.1,019.0,0000.0,0005.15,0010.59,0004.42
2024-06-16 03:38:00,SystemResetWarning,0824.4,5.01,000.00,029.0,026.9,000.0,037.6,030.3,018.9,0000.0,0005.15,0011.18,0004.41
2024-06-16 03:39:00,SystemResetWarning,0824.4,5.00,000.00,029.1,027.3,000.0,037.6,030.6,018.8,0000.0,0005.14,0012.07,0004.40
2024-06-16 03:40:00,SystemResetWarning,0824.4,4.99,000.00,029.1,027.6,000.0,037.5,030.7,018.1,0000.0,0005.12,0012.20,0004.40
2024-06-16 03:41:00,SystemResetWarning,0824.5,5.00,000.00,029.2,027.9,000.0,037.5,030.9,016.9,0000.0,0005.08,0011.79,0004.40
2024-06-16 03:42:00,SystemResetWarning,0824.5,5.00,000.00,029.2,028.2,000.0,037.5,031.0,017.3,0000.0,0005.09,0012.06,0004.41
2024-06-16 03:43:00,SystemResetWarning,0824.5,5.00,000.00,029.3,028.4,000.0,037.5,031.1,017.1,0000.0,0005.11,0012.13,0004.42
2024-06-16 03:44:00,SystemResetWarning,0824.5,5.00,000.00,029.4,028.6,000.0,037.6,031.2,016.8,0000.0,0005.17,0012.59,0004.43
2024-06-16 03:45:00,SystemResetWarning,0824.5,4.99,000.00,029.5,028.8,000.0,037.6,031.3,016.6,0000.0,0005.21,0012.66,0004.45
2024-06-16 03:46:00,SystemResetWarning,0824.5,4.99,000.00,029.5,028.9,000.0,037.6,031.4,016.7,0000.0,0005.22,0012.52,0004.48
2024-06-16 03:47:00,SystemResetWarning,0824.5,5.01,000.00,029.6,029.0,000.0,037.6,031.4,016.8,0000.0,0005.20,0012.43,0004.50
2024-06-16 03:48:00,SystemResetWarning,0824.5,5.00,000.00,029.7,029.2,000.0,037.7,031.5,016.8,0000.0,0005.21,0012.34,0004.51
2024-06-16 03:49:00,SystemResetWarning,0824.5,5.00,000.00,029.7,029.2,000.0,037.7,031.6,016.7,0000.0,0005.20,0012.57,0004.52
2024-06-16 03:50:00,SystemResetWarning,0824.6,5.00,000.00,029.8,029.3,000.0,037.7,031.7,016.7,0000.0,0005.19,0011.59,0004.55
2024-06-16 03:51:00,SystemResetWarning,0824.6,4.99,000.00,029.8,028.9,000.0,037.8,031.4,016.7,0000.0,0005.24,0011.04,0004.58
2024-06-16 03:52:00,SystemResetWarning,0824.4,5.01,000.00,029.5,026.6,000.0,037.9,030.3,017.0,0000.0,0005.30,0011.43,0004.62
2024-06-16 03:53:00,SystemResetWarning,0824.4,5.02,000.00,029.2,026.2,000.0,037.9,030.1,017.3,0000.0,0005.31,0011.63,0004.62
2024-06-16 03:54:00,SystemResetWarning,0824.4,5.00,000.00,029.1,026.6,000.0,037.8,030.2,017.4,0000.0,0005.32,0011.75,0004.63
2024-06-16 03:55:00,SystemResetWarning,0824.4,5.00,000.00,029.1,027.0,000.0,037.7,030.4,017.3,0000.0,0005.30,0011.52,0004.63
2024-06-16 03:56:00,SystemResetWarning,0824.5,5.01,000.00,029.2,027.4,000.0,037.6,030.7,017.2,0000.0,0005.30,0011.52,0004.63
2024-06-16 03:57:00,SystemResetWarning,0824.5,5.00,000.00,029.2,027.7,000.0,037.6,030.8,017.0,0000.0,0005.31,0011.56,0004.64
2024-06-16 03:58:00,SystemResetWarning,0824.5,5.00,000.00,029.2,028.0,000.0,037.6,030.9,017.0,0000.0,0005.34,0011.62,0004.65
2024-06-16 03:59:00,SystemResetWarning,0824.5,5.00,000.00,029.3,028.3,000.0,037.6,031.0,017.1,0000.0,0005.36,0011.67,0004.66
